Wind_Speed
34 35 35 38 41 42 42 40 40 40 37 34 32 30 32 33 34 37 34 36 37 35 37 38 41 43 41 43 44 47 51 51 58 60 63 56 61 56 53 58 64 61 57
35 35 35 35 35 33 34 35 36 39 43 49 52 45 44 43 42 43 44 46 45 44 43 42 43 41 43 44 44 45 44 45 53 61 58 53 55 57 46 48 49 61 69
34 34 34 34 33 34 34 33 34 35 34 34 34 35 37 38 41 41 45 43 40 44 46 46 47 49 55 48 47 52 48 49 53 54 58 54 55 51 51 47 50 62 69
30 31 32 32 32 32 31 31 31 31 30 29 29 29 30 32 34 36 37 39 41 41 45 45 46 45 44 50 51 53 52 56 56 55 55 58 53 51 52 53 52 58 58
30 31 32 32 32 30 27 25 24 23 23 24 24 24 26 29 30 33 35 36 39 41 41 43 45 47 49 50 51 52 51 52 60 58 56 62 60 59 62 54 52 57 47
29 31 32 32 30 27 24 23 23 23 24 26 29 31 33 35 37 39 40 40 40 41 43 43 45 47 48 51 53 54 54 58 58 58 58 64 64 60 61 58 57 56 63
29 30 31 30 28 26 25 26 27 28 30 33 36 39 41 44 45 45 46 46 46 45 45 46 47 48 50 53 55 56 57 58 59 62 62 60 67 61 58 61 63 56 65
30 30 29 29 30 29 29 30 32 34 36 39 41 44 47 51 54 56 58 56 55 52 52 52 53 53 52 53 55 57 58 60 63 63 63 66 63 64 62 61 63 62 56
33 32 32 32 32 33 34 35 37 39 41 43 46 49 53 55 57 60 62 62 61 62 62 63 63 64 64 63 63 61 63 61 65 67 68 65 65 63 63 62 61 61 66
35 34 35 35 36 36 37 39 41 44 46 49 52 56 58 59 61 62 65 67 69 72 74 75 75 75 75 74 73 74 74 70 66 69 69 68 65 64 63 63 64 65 54
36 36 36 36 37 38 39 42 44 46 49 52 56 58 60 62 65 66 68 68 71 74 76 79 77 76 77 77 74 75 77 76 71 70 73 70 67 64 63 63 62 62 62
37 37 37 38 40 41 42 44 47 50 53 56 58 60 62 64 65 66 66 65 65 67 67 66 66 68 69 70 73 73 74 71 74 73 72 73 71 66 62 61 62 61 59
38 38 38 39 41 43 45 47 49 52 55 57 60 62 63 64 62 63 62 61 60 60 60 60 61 62 63 65 65 67 68 71 69 71 74 75 70 70 64 61 60 62 61
37 38 39 41 42 44 46 49 52 54 56 57 58 58 58 59 58 57 57 58 58 57 57 57 58 59 60 61 62 60 57 56 57 65 68 70 68 65 66 62 60 59 61
37 38 40 41 43 45 47 48 50 51 52 53 54 54 55 54 53 53 53 53 54 55 55 56 57 57 58 58 56 52 50 46 45 47 54 60 61 60 62 61 59 58 59
36 37 39 42 44 47 48 48 47 48 47 47 47 48 48 49 49 49 50 51 51 51 52 53 52 53 54 55 54 51 47 44 42 45 47 45 49 53 55 57 56 56 56
37 39 41 44 46 47 47 47 47 43 43 43 44 45 46 46 47 48 49 50 52 53 53 52 53 54 53 50 48 46 44 41 37 38 43 42 41 45 47 50 53 53 54
39 42 44 44 44 43 44 44 44 45 44 42 42 44 46 47 47 49 50 51 51 51 53 52 51 51 50 50 46 44 41 38 37 36 36 38 38 38 42 44 46 50 51
41 42 41 40 40 41 41 41 42 44 45 46 47 48 49 50 51 51 52 54 54 53 53 51 51 49 48 47 47 44 41 37 35 34 34 37 35 35 35 38 42 45 47
38 36 36 36 37 40 42 44 46 47 48 49 49 51 52 51 51 51 49 49 49 48 49 49 47 47 46 45 44 43 41 38 34 32 32 33 34 33 33 33 35 40 41
34 33 34 37 39 39 40 40 40 41 41 41 42 43 44 45 45 46 46 45 46 45 46 45 44 44 44 43 43 41 41 39 38 32 29 30 32 33 30 30 31 33 37
31 33 34 34 35 35 36 36 37 38 38 39 39 38 39 40 41 41 41 42 42 43 43 44 43 42 42 42 42 42 40 39 37 36 31 28 28 30 31 28 28 29 30
31 32 33 34 35 37 37 37 38 39 39 39 40 40 40 40 40 41 41 40 40 41 40 41 41 39 39 39 40 41 41 40 38 37 34 32 28 27 27 28 27 28 28
31 33 34 34 35 36 36 36 37 38 39 39 40 40 40 40 40 40 40 40 40 39 40 40 39 39 38 37 37 37 38 39 38 38 36 34 33 30 27 26 26 27 28
32 33 34 35 35 36 36 37 37 38 39 40 41 41 41 40 40 40 40 40 40 39 38 39 39 38 38 37 37 37 37 37 37 38 36 35 34 33 31 28 27 25 26
32 32 33 35 35 36 37 38 38 39 40 40 41 41 42 41 40 40 41 40 39 39 38 38 39 39 39 38 37 37 37 36 36 36 36 35 34 33 33 32 28 26 26
Wind_Direction
283 284 283 282 281 281 281 283 280 280 278 279 279 287 295 296 294 293 290 290 289 289 288 287 285 284 281 285 288 278 277 276 277 280 276 281 280 282 280 274 260 259 258
280 280 280 280 282 286 286 286 285 286 281 278 276 280 285 289 292 295 289 290 292 291 291 293 294 295 291 289 291 287 290 285 284 277 286 288 284 289 291 289 274 271 259
279 281 283 284 286 286 287 289 288 289 290 292 290 290 289 286 287 281 283 286 286 288 284 285 289 287 288 294 291 289 290 286 284 286 287 288 285 289 289 283 277 279 252
284 286 289 291 293 294 294 293 292 293 294 296 297 299 300 299 298 295 293 291 290 288 288 286 285 284 281 278 281 279 282 281 283 280 283 286 285 288 286 284 287 279 261
281 284 287 289 291 290 289 287 288 290 294 297 300 302 303 304 304 303 301 299 296 293 290 286 284 283 284 283 285 286 279 284 280 279 283 281 283 283 288 289 287 288 268
280 281 283 286 287 286 284 283 284 288 292 297 300 302 306 308 308 308 307 303 302 301 298 296 292 288 284 282 281 279 282 283 282 280 271 277 278 281 283 283 285 292 285
278 279 281 279 280 279 278 280 284 288 291 295 300 303 306 308 309 310 309 308 305 304 301 299 296 294 292 290 285 281 279 277 279 281 279 274 273 271 281 279 280 285 287
283 283 279 274 274 277 280 281 284 290 295 299 302 305 307 310 312 312 312 311 309 307 305 304 303 301 297 293 289 288 285 282 277 274 275 277 275 269 265 271 274 278 283
287 285 279 276 276 278 281 286 291 295 298 300 302 304 307 309 310 311 311 310 307 306 305 305 305 302 300 298 296 291 289 289 281 274 272 272 275 274 266 265 266 272 272
288 284 280 279 281 282 285 289 293 297 299 302 305 308 308 309 309 309 308 308 306 305 307 305 304 302 299 297 295 294 292 290 283 279 271 268 270 271 271 265 264 264 267
282 280 279 280 282 285 289 292 295 297 298 301 303 305 306 307 307 307 307 307 307 306 305 304 303 300 297 293 289 287 288 287 280 274 274 268 265 266 268 267 262 260 265
279 278 279 282 286 289 292 295 297 298 300 302 303 305 305 305 305 305 306 306 307 306 306 306 305 304 301 296 290 285 281 276 275 272 268 266 264 262 263 266 265 264 262
278 280 283 287 291 294 297 299 300 301 302 303 303 304 304 303 303 303 304 304 305 305 306 306 306 304 302 297 291 285 280 276 272 266 264 263 261 260 259 260 263 262 260
281 284 288 292 296 298 301 302 303 304 304 304 303 302 302 302 303 303 304 305 305 306 308 308 309 308 308 307 302 294 285 280 274 268 264 263 262 258 258 256 259 261 260
283 287 291 295 298 301 303 304 304 304 304 303 303 303 302 302 303 306 309 310 310 310 311 311 311 310 310 310 305 298 289 283 279 273 270 263 261 259 256 254 255 258 259
291 294 298 301 303 304 304 305 305 304 304 303 302 302 303 303 304 305 306 306 306 308 309 311 312 313 312 314 312 305 300 292 279 273 275 273 269 261 256 255 254 255 255
296 300 302 303 304 305 305 304 304 303 303 302 301 301 301 301 302 301 300 302 303 304 304 306 307 308 310 312 316 313 304 297 291 280 275 273 270 266 258 254 254 253 251
299 302 304 305 305 306 306 306 306 306 305 304 302 302 302 302 302 302 302 301 301 301 302 303 303 303 303 306 311 314 313 303 294 286 281 274 269 265 262 255 253 253 252
302 304 304 304 305 305 306 307 308 308 307 305 303 302 301 301 301 301 301 301 301 300 301 303 304 303 303 302 304 309 312 315 305 293 285 280 276 272 263 256 249 246 247
301 301 302 304 305 305 306 306 306 306 305 305 304 303 302 302 301 301 301 301 302 303 303 304 304 304 303 302 302 302 306 308 313 302 292 283 279 276 272 265 257 247 241
300 301 303 306 307 308 308 309 310 310 310 311 312 311 311 311 311 310 310 309 308 308 307 307 307 306 306 305 304 304 304 304 305 310 305 293 285 280 274 271 267 261 252
299 304 306 308 310 310 311 312 312 313 315 315 315 316 315 316 316 316 315 314 313 313 312 311 311 310 310 309 308 307 306 305 303 302 306 305 295 286 280 276 271 267 263
301 304 306 307 308 309 310 311 312 312 312 313 313 313 313 314 314 314 314 315 315 315 314 313 313 313 312 311 310 309 309 308 307 304 301 302 305 298 289 280 273 268 264
300 303 304 306 307 309 310 311 311 312 312 313 313 314 314 314 314 314 314 314 314 315 314 314 314 315 314 313 313 311 309 309 309 307 305 302 298 301 299 293 284 272 267
299 302 304 305 307 308 309 310 311 312 312 312 313 313 313 313 313 313 313 314 314 314 314 313 313 314 313 314 314 314 313 311 309 306 305 302 299 294 295 295 293 284 269
300 301 302 304 306 308 309 310 312 311 311 311 311 311 312 312 313 313 313 313 313 313 314 313 312 312 312 312 313 313 312 311 309 305 303 300 297 293 287 288 287 284 279
Height
3085 3083 3081 3078 3076 3074 3072 3070 3069 3068 3066 3064 3061 3059 3057 3055 3052 3051 3047 3045 3042 3038 3038 3034 3032 3031 3028 3026 3022 3019 3017 3015 3007 3006 3009 3010 3005 3005 3001 3002 3003 3003 3005
3076 3074 3072 3070 3067 3065 3063 3061 3059 3056 3054 3052 3051 3049 3047 3044 3042 3039 3038 3034 3033 3031 3028 3023 3022 3020 3018 3015 3012 3009 3004 3003 2998 2991 2995 2992 2989 2988 2984 2982 2983 2986 2986
3067 3065 3063 3062 3059 3057 3055 3053 3050 3048 3046 3043 3040 3039 3037 3033 3032 3027 3027 3023 3019 3018 3016 3012 3011 3009 3006 3004 3001 2997 2994 2992 2989 2982 2976 2979 2975 2974 2971 2969 2968 2964 2965
3060 3058 3056 3053 3051 3048 3046 3044 3042 3040 3038 3035 3032 3029 3027 3024 3020 3018 3015 3013 3010 3006 3005 3002 3000 2996 2992 2991 2989 2986 2982 2979 2977 2971 2965 2963 2963 2960 2958 2955 2953 2951 2947
3052 3050 3048 3045 3043 3041 3039 3037 3035 3032 3030 3027 3024 3022 3018 3015 3010 3008 3004 3001 2999 2996 2993 2990 2988 2985 2981 2979 2974 2972 2970 2967 2963 2958 2953 2950 2949 2945 2942 2943 2936 2936 2932
3044 3042 3039 3037 3035 3033 3031 3029 3026 3024 3021 3017 3014 3011 3009 3005 3000 2997 2992 2989 2986 2982 2979 2977 2974 2970 2967 2965 2963 2959 2957 2952 2948 2945 2941 2938 2934 2933 2929 2929 2927 2921 2920
3036 3034 3031 3029 3027 3025 3023 3021 3018 3015 3012 3008 3004 3001 2997 2994 2990 2987 2983 2980 2975 2971 2967 2963 2961 2957 2952 2948 2945 2942 2941 2939 2935 2931 2926 2923 2921 2920 2918 2913 2911 2909 2906
3026 3024 3022 3020 3018 3016 3013 3011 3007 3004 3001 2998 2993 2990 2986 2981 2976 2972 2968 2963 2960 2956 2952 2948 2944 2940 2937 2932 2927 2924 2921 2919 2917 2915 2913 2907 2908 2906 2902 2899 2896 2893 2892
3016 3014 3012 3010 3008 3005 3002 3001 2996 2993 2989 2985 2981 2977 2973 2968 2962 2957 2951 2947 2944 2940 2936 2931 2926 2921 2917 2912 2907 2902 2900 2900 2897 2895 2893 2889 2888 2888 2888 2885 2878 2879 2874
3006 3004 3002 2999 2999 2995 2990 2989 2985 2980 2976 2972 2968 2963 2957 2951 2945 2939 2933 2927 2923 2918 2913 2908 2904 2900 2897 2893 2884 2879 2875 2876 2873 2872 2872 2870 2869 2868 2869 2868 2866 2861 2861
2996 2994 2993 2989 2987 2984 2980 2976 2973 2969 2964 2960 2955 2950 2943 2936 2929 2922 2916 2908 2900 2895 2889 2885 2881 2875 2871 2868 2864 2857 2852 2850 2847 2845 2845 2847 2848 2848 2848 2848 2848 2847 2845
2985 2984 2980 2978 2975 2971 2967 2963 2959 2955 2950 2944 2938 2932 2926 2920 2913 2906 2898 2890 2882 2875 2870 2865 2859 2853 2847 2842 2838 2833 2829 2824 2821 2819 2820 2821 2825 2826 2826 2827 2827 2829 2830
2976 2973 2970 2967 2963 2958 2954 2950 2945 2940 2935 2929 2923 2917 2911 2904 2897 2889 2882 2874 2869 2861 2855 2849 2843 2836 2828 2821 2816 2809 2804 2800 2797 2794 2793 2794 2800 2803 2804 2804 2806 2809 2809
2965 2962 2959 2955 2951 2947 2942 2937 2932 2926 2921 2914 2908 2902 2896 2890 2882 2875 2867 2860 2854 2847 2841 2835 2827 2820 2813 2803 2795 2789 2783 2780 2776 2774 2771 2771 2774 2779 2782 2784 2786 2789 2790
2955 2952 2948 2944 2940 2936 2931 2926 2920 2913 2906 2899 2892 2886 2880 2875 2869 2861 2852 2846 2839 2833 2826 2821 2814 2807 2799 2790 2782 2774 2767 2763 2760 2757 2754 2751 2752 2755 2760 2763 2765 2767 2770
2943 2940 2936 2932 2927 2922 2917 2912 2906 2900 2894 2887 2881 2874 2869 2863 2857 2851 2843 2837 2830 2823 2817 2809 2804 2794 2785 2776 2766 2759 2754 2749 2745 2743 2740 2738 2736 2737 2739 2743 2745 2748 2752
2931 2928 2924 2919 2914 2908 2903 2898 2894 2890 2883 2877 2870 2865 2859 2853 2846 2841 2834 2827 2820 2813 2806 2799 2792 2784 2775 2767 2758 2750 2741 2738 2732 2728 2727 2725 2722 2720 2721 2724 2727 2730 2733
2919 2915 2911 2906 2901 2896 2891 2885 2880 2874 2869 2865 2859 2852 2847 2842 2835 2828 2822 2815 2810 2803 2795 2788 2781 2774 2766 2757 2750 2742 2734 2727 2722 2718 2716 2713 2710 2706 2707 2708 2711 2714 2716
2908 2903 2899 2894 2889 2884 2879 2874 2868 2863 2857 2851 2845 2840 2834 2828 2821 2815 2808 2801 2795 2789 2781 2775 2768 2761 2754 2747 2739 2733 2726 2718 2712 2707 2705 2702 2699 2696 2694 2695 2695 2698 2700
2896 2892 2888 2884 2879 2874 2868 2862 2857 2851 2845 2839 2833 2826 2820 2815 2808 2801 2795 2788 2781 2775 2768 2762 2756 2750 2743 2736 2729 2723 2717 2712 2705 2699 2696 2692 2690 2686 2683 2683 2683 2684 2685
2885 2882 2878 2873 2867 2862 2856 2851 2845 2840 2834 2828 2822 2815 2808 2800 2794 2788 2781 2774 2768 2762 2756 2750 2744 2738 2732 2725 2718 2712 2707 2702 2697 2692 2687 2683 2679 2677 2674 2673 2672 2673 2674
2875 2871 2867 2862 2857 2853 2847 2841 2836 2830 2824 2818 2813 2806 2799 2793 2786 2779 2772 2765 2758 2752 2745 2739 2733 2728 2721 2715 2708 2702 2697 2693 2688 2684 2679 2675 2670 2667 2664 2662 2662 2663 2664
2864 2861 2857 2853 2848 2843 2838 2832 2826 2821 2815 2809 2803 2797 2790 2784 2778 2771 2764 2757 2751 2744 2738 2731 2724 2720 2714 2707 2700 2693 2686 2682 2678 2673 2670 2666 2662 2658 2656 2654 2653 2654 2655
2855 2851 2848 2843 2839 2834 2829 2824 2818 2812 2806 2800 2794 2788 2781 2775 2769 2762 2755 2748 2742 2736 2729 2723 2717 2711 2705 2700 2693 2687 2680 2674 2669 2664 2661 2658 2654 2652 2649 2646 2644 2644 2644
2846 2842 2838 2834 2829 2824 2820 2814 2808 2802 2796 2790 2784 2778 2772 2766 2759 2753 2746 2739 2733 2727 2721 2715 2708 2703 2697 2691 2685 2680 2674 2668 2663 2657 2653 2650 2646 2644 2641 2639 2636 2635 2635
2836 2833 2829 2825 2820 2815 2809 2804 2798 2792 2787 2781 2774 2768 2762 2756 2749 2743 2736 2730 2724 2718 2712 2706 2700 2693 2688 2682 2677 2672 2666 2661 2656 2650 2645 2641 2638 2635 2633 2631 2630 2628 2627